COSMOS 1275 DEB, 42184

Orbit data source: Space-Track

COSMOS 1275 DEB, 42184 is space debris in LEO originally from a launch on Thu, 04 Jun 1981 UTC launched from the Plesetsk Missile And Space Complex (PKMTR). Debris objects in space refer to the collection of defunct objects orbiting the Earth. Examples of debris include non-operational satellites, rocket bodies, and fragments generated from explosions, collisions, or faulty payload assembly.

Loading next visibility...
Identifier
42184, 1981-053SY
Orbit
LEO
Country
Flag of CISCIS
Related business
Manufacturer
Unknown
Mission
Spacecraft
Bus & Motor
Unknown
Mass
Unknown
Launch date (UTC)
1981-06-04 (45 years ago)
Launch vehicle
Unknown
Launch site
Plesetsk Missile And Space Complex (PKMTR)
Object type
Payload
Rocket body
Debris
Shape & HBR
Unknown shape, 0.1 m
Radar Cross Section
Small (<0.1 m²)

Expand to show TLE details & history
Last TLE update: 5 days ago

TLE from 5 days ago
0 COSMOS 1275 DEB
1 42184U 81053SY  25351.04032913  .00000267  00000-0  31698-3 0  9999
2 42184  83.0228  78.5093 0095160 238.4447 301.6339 13.62287665586751
Epoch: 2025-12-17T00:58Z
TLE epoch observation values (Epoch: 2025-12-17T00:58:04.436Z)
Latitude
0.73944°
Longitude
157.98489°
Altitude
993.702 km
Speed
7.373 km/s
True Right ascension
17h 13m 40s
True Declination
0° 44' 07"
Sunlit
Object was in daylight at epoch
Visualization orbit readout
Latitude
Unknown
Longitude
Unknown
Altitude
Unknown
Speed
Unknown
Apparent Right ascension
Unknown
Apparent Declination
Unknown
Sunlit
N/A
Visualization observer readout
Local Sidereal Time
18:00:41
Azimuth
Unknown
Elevation
Unknown
Doppler factor
Unknown
Orbital elements
Apogee altitude
1,094.997 km
Perigee altitude
954.109 km
Semi-major axis
7,402.69 km
Eccentricity
0.00952
Inclination
83.0228°
RAAN
78.5093°
Arg. of periapsis
238.4447°
True anomaly
300.69968°
Mean anomaly
301.6339°
Eccentric anomaly
301.16737°
Mean motion
3.40768 °/min
Orbital period
105.64 mins
BSTAR
0.00031698
Loading maneuver chart data...
Computing Atmospheric mass density...
Loading historical data...
Loading historical data...
Loading historical data...
Loading historical data...
Loading historical data...
Loading historical data...
Loading historical data...

Documentation

Showing up to 5 results
|